This is the latest recevied weather packets stored in our database for station/object WW3TRG. If no packets are shown the sender has not sent any weather packets the latest 10 day(s).
| Time | Temp. | Humidity | Pressure | Rain* | Wind** | Luminosity | Snow |
|---|---|---|---|---|---|---|---|
| 1788609452 | 20.56° C | 75% | 1011.8 hPa | 0 mm | - | 49 W/m² | - |
| 1788609146 | 20.56° C | 76% | 1011.7 hPa | 0 mm | - | 26 W/m² | - |
| 1788608841 | 20.56° C | 76% | 1012 hPa | 0 mm | - | 22 W/m² | - |
| 1788608539 | 20° C | 76% | 1012 hPa | 0 mm | - | 18 W/m² | - |
| 1788608239 | 20° C | 77% | 1011.9 hPa | 0 mm | - | 18 W/m² | - |
| 1788607935 | 20° C | 76% | 1011.7 hPa | 0 mm | - | 17 W/m² | - |
| 1788607660 | 20° C | 76% | 1011.7 hPa | 0 mm | - | 16 W/m² | - |
| 1788607330 | 20° C | 76% | 1011.7 hPa | 0 mm | - | 12 W/m² | - |
| 1788607030 | 20.56° C | 76% | 1011.5 hPa | 0 mm | - | 12 W/m² | - |
| 1788606729 | 20.56° C | 76% | 1011.6 hPa | 0 mm | - | 9 W/m² | - |
| 1788606429 | 20° C | 77% | 1011.7 hPa | 0 mm | - | 10 W/m² | - |
| 1788606123 | 19.44° C | 81% | 1011.6 hPa | 0 mm | - | 7 W/m² | - |
| 1788605819 | 18.89° C | 81% | 1011.5 hPa | 0 mm | - | 6 W/m² | - |
| 1788605517 | 18.89° C | 81% | 1011.2 hPa | 0 mm | - | 2 W/m² | - |
| 1788605213 | 18.89° C | 81% | 1011.1 hPa | 0 mm | - | 0 W/m² | - |
| 1788604909 | 18.89° C | 81% | 1011 hPa | 0 mm | - | 0 W/m² | - |
| 1788604604 | 18.89° C | 81% | 1010.9 hPa | 0 mm | - | 0 W/m² | - |
| 1788604299 | 18.89° C | 81% | 1011 hPa | 0 mm | - | 0 W/m² | - |
| 1788603995 | 18.89° C | 81% | 1010.9 hPa | 0 mm | - | 0 W/m² | - |
| 1788603692 | 18.89° C | 80% | 1010.7 hPa | 0 mm | - | 0 W/m² | - |
| 1788603389 | 18.89° C | 80% | 1010.7 hPa | 0 mm | - | 0 W/m² | - |
| 1788603088 | 18.89° C | 80% | 1010.8 hPa | 0 mm | - | 0 W/m² | - |
| 1788602784 | 19.44° C | 80% | 1010.8 hPa | 0 mm | - | 0 W/m² | - |
| 1788602480 | 19.44° C | 80% | 1011 hPa | 0 mm | - | 0 W/m² | - |
| 1788602173 | 19.44° C | 80% | 1010.7 hPa | 0 mm | - | 0 W/m² | - |
* Rain latest hour (hover to see other rain measurements)
** Current wind speed in m/s (hover to see current wind gust speed)